Regional Weather Roundup
Issued by NWS Jackson, KY

Home | Current Version | Previous Version | Graphics & Text | Print | Product List | Glossary On
Versions: 1 2 3 4 5 6 7 8 9 10 11 12 13 14 15 16 17 18 19 20 21 22 23 24 25 26 27
000
ASUS43 KJKL 232010
RWRJKL

EAST KENTUCKY HOURLY WEATHER ROUNDUP
NATIONAL WEATHER SERVICE JACKSON KY
400 PM EDT FRI JUN 23 2017

NOTE: "FAIR" INDICATES FEW OR NO CLOUDS BELOW 12,000 FEET WITH
NO SIGNIFICANT WEATHER AND/OR OBSTRUCTIONS TO VISIBILITY.

* THESE REPORTS ARE NOT UNDER NWS QUALITY CONTROL AND MAY NOT
  REPORT WEATHER SUCH AS PRECIPITATION AND FOG.

KYZ079-080-083-085-087-088-110-112-115-119-120-232100
...EASTERN KENTUCKY...

CITY           SKY/WX    TMP DP  RH WIND       PRES   REMARKS
JACKSON        LGT RAIN  77  71  82 VRB3      29.81F
LONDON         CLOUDY    81  70  69 S10       29.80F
SOMERSET*      CLOUDY    79  68  69 S10G21    29.77F
MONTICELLO*    LGT RAIN  80  72  76 S9        29.77F
WILLIAMSBURG*  CLOUDY    81  72  74 SW3       29.79F
MIDDLESBORO*   PTSUNNY   83  68  60 S8G17     29.83F
HARLAN APT*    CLOUDY    81  64  57 CALM      29.84F
PIKE CO APT*   CLOUDY    80  71  73 S5        29.82F
BIG SANDY APT* MOCLDY    81  71  72 SW8       29.81F
MOREHEAD APT*  CLOUDY    81  70  69 SW16G22   29.77F HAZE
$$

KYZ035-036-041-042-044-050-067-078-099-232100
...CENTRAL KENTUCKY...

CITY           SKY/WX    TMP DP  RH WIND       PRES   REMARKS
MT STERLING*   CLOUDY    79  70  73 SW14G25   29.77F
FLEMING/MASON* CLOUDY    82  70  67 SW14      29.74F
DANVILLE*      RAIN      77  70  78 SW12G23   29.75F
LEXINGTON      CLOUDY    81  69  67 S14       29.73F
FRANKFORT      CLOUDY    81  70  69 S10       29.69F
LOUISVILLE     RAIN      79  74  84 SW9       29.70S
LEBANON*       HVY RAIN  75  73  94 SW16G25   29.73R VSB 1/2
GLASGOW*       HVY RAIN  74  74 100 SE8       29.67F
BOWLING GREEN  LGT RAIN  77  75  93 S16G32    29.63F FOG
$$

KYZ091>093-OHZ055-061-077-WVZ005-015-034-035-042-232100
...SOUTHERN OHIO/WEST VIRGINIA...

CITY           SKY/WX    TMP DP  RH WIND       PRES   REMARKS
COVINGTON      HVY RAIN  69  68  96 W18       29.73S VSB 1
COLUMBUS       RAIN      71  70  96 SW8       29.71S FOG
DAYTON         LGT RAIN  68  67  96 SW6       29.73F
WILMINGTON     RAIN      67  67 100 NW9       29.75R FOG
HUNTINGTON     PTSUNNY   83  71  67 SW10G21   29.75F
CHARLESTON     PTSUNNY   83  69  62 S12G25    29.77F
PINEVILLE*     PTSUNNY   81  68  65 MISG      29.91F
BECKLEY        PTSUNNY   77  64  64 SW15G24   29.91F
BLUEFIELD      SUNNY     79  60  52 W28G38    29.95F
LOGAN CO APT*    N/A     79  70  73 CALM      29.84F
$$

VAZ002-007-008-TNZ017-027-036-066-071-232100
...SOUTHWEST VIRGINIA/EAST TENNESSEE...

CITY           SKY/WX    TMP DP  RH WIND       PRES   REMARKS
WISE*          MOSUNNY   79  63  57 S15G29    29.93F
JONESVILLE*      N/A     86  66  51 SW15G24   29.87F
ABINGDON*      PTSUNNY   86  67  53 W13G22    29.91F
BRISTOL        PTSUNNY   88  65  46 SW14      29.87F HX  90
MORRISTOWN*    PTCLDY    90  63  40 W14G22    29.84F HX  90
SEVIERVILLE*   CLEAR     91  57  31 SW26G40   29.82F HX  90
LAFOLLETTE*    CLOUDY    81  70  69 S12G22    29.85F
OAK RIDGE      CLOUDY    85  66  53 S12G26    29.82F
CROSSVILLE     CLOUDY    78  68  71 S13G24    29.84F
NASHVILLE      CLOUDY    78  73  84 SW20G30   29.70F
$$

...KEY TO REMARKS...
VSB - VISIBILITY IN MILES
WCI - WIND CHILL INDEX
HX  - HEAT INDEX

$$




USA.gov is the U.S. government's official web portal to all federal, state and local government web resources and services.